Powrót do katalogu

COSMOS 2111

GLONASS

AktywnyNawigacjaMEO
NORAD 21008·PAYLOAD·🇷🇺 Russia

Wystrzelony Dec 8, 1990 z Baikonur Cosmodrome

Loading…

Następne Przeloty (najbliższe 24 godziny)

TLE

ŚwieżeSource: Space-Track

Epoka: Sep 8, 2026, 09:12 UTC

1 21008U 90110C   26251.38395962  .00000032  00000-0  00000-0 0  9998
2 21008  64.9776  68.3710 0017774 237.0935 135.5034  2.13098520278178

Śledź COSMOS 2111 w czasie rzeczywistym z AllMySat

Download on the App Store